| time (UTC) | temp F | wind direction | speed MPH | gust MPH | rain 1hr in | rain 24hr in | rain mn in | humidity % | barometer mb |
| 20260504025709 | 53 | 176 | 0.0 | 0.0 | 0.00 | 0.00 | 0.00 | 53 | 1044.0 |
| 20260504025206 | 54 | 177 | 0.0 | 0.0 | 0.00 | 0.00 | 0.00 | 52 | 1044.0 |
| 20260504024703 | 54 | 177 | 0.0 | 0.0 | 0.00 | 0.00 | 0.00 | 51 | 1043.7 |
| 20260504024200 | 56 | 177 | 0.0 | 0.0 | 0.00 | 0.00 | 0.00 | 51 | 1043.8 |
| 20260504023656 | 55 | 180 | 0.0 | 0.0 | 0.00 | 0.00 | 0.00 | 49 | 1043.9 |
| 20260504023152 | 57 | 175 | 0.0 | 0.0 | 0.00 | 0.00 | 0.00 | 46 | 1044.0 |
| 20260504022649 | 58 | 175 | 0.0 | 0.0 | 0.00 | 0.00 | 0.00 | 45 | 1043.9 |
| 20260504022144 | 58 | 164 | 0.0 | 0.0 | 0.00 | 0.00 | 0.00 | 44 | 1043.8 |
| 20260504021643 | 59 | 174 | 0.0 | 1.0 | 0.00 | 0.00 | 0.00 | 44 | 1043.9 |
| 20260504021139 | 60 | 172 | 0.0 | 1.0 | 0.00 | 0.00 | 0.00 | 42 | 1043.8 |
| 20260504020636 | 60 | 169 | 1.0 | 1.0 | 0.00 | 0.00 | 0.00 | 41 | 1043.8 |
| 20260504020132 | 59 | 178 | 0.0 | 0.0 | 0.00 | 0.00 | 0.00 | 42 | 1043.9 |
| 20260504015629 | 60 | 175 | 0.0 | 0.0 | 0.00 | 0.00 | 0.00 | 40 | 1044.0 |
| 20260504015125 | 61 | 182 | 0.0 | 0.0 | 0.00 | 0.00 | 0.00 | 38 | 1043.8 |
| 20260504014621 | 62 | 185 | 0.0 | 1.0 | 0.00 | 0.00 | 0.00 | 37 | 1043.8 |
| 20260504014119 | 62 | 218 | 1.0 | 1.0 | 0.00 | 0.00 | 0.00 | 38 | 1043.9 |
| 20260504013616 | 63 | 180 | 0.0 | 1.0 | 0.00 | 0.00 | 0.00 | 36 | 1043.9 |
| 20260504013113 | 63 | 189 | 0.0 | 1.0 | 0.00 | 0.00 | 0.00 | 37 | 1043.9 |
| 20260504012610 | 63 | 196 | 1.0 | 2.0 | 0.00 | 0.00 | 0.00 | 35 | 1043.9 |
| 20260504012108 | 64 | 205 | 1.0 | 2.0 | 0.00 | 0.00 | 0.00 | 35 | 1043.8 |
| 20260504011605 | 65 | 268 | 1.0 | 2.0 | 0.00 | 0.00 | 0.00 | 34 | 1043.8 |
| 20260504011101 | 66 | 201 | 2.0 | 3.0 | 0.00 | 0.00 | 0.00 | 34 | 1043.8 |
| 20260504010556 | 66 | 258 | 1.0 | 3.0 | 0.00 | 0.00 | 0.00 | 33 | 1043.8 |
| 20260504010053 | 66 | 223 | 2.0 | 3.0 | 0.00 | 0.00 | 0.00 | 33 | 1043.8 |
| 20260504005549 | 66 | 222 | 2.0 | 3.0 | 0.00 | 0.00 | 0.00 | 32 | 1043.7 |
| 20260504005047 | 67 | 254 | 2.0 | 4.0 | 0.00 | 0.00 | 0.00 | 33 | 1043.8 |
| 20260504004545 | 67 | 273 | 2.0 | 6.0 | 0.00 | 0.00 | 0.00 | 31 | 1043.8 |
| 20260504004042 | 68 | 268 | 3.0 | 4.0 | 0.00 | 0.00 | 0.00 | 32 | 1043.8 |
| 20260504003537 | 68 | 259 | 2.0 | 2.0 | 0.00 | 0.00 | 0.00 | 31 | 1044.0 |
| 20260504003034 | 68 | 240 | 2.0 | 4.0 | 0.00 | 0.00 | 0.00 | 31 | 1043.9 |
| 20260504002531 | 68 | 253 | 2.0 | 4.0 | 0.00 | 0.00 | 0.00 | 31 | 1043.9 |
| 20260504002029 | 69 | 278 | 5.0 | 8.0 | 0.00 | 0.00 | 0.00 | 30 | 1043.9 |
| 20260504001527 | 69 | 285 | 4.0 | 6.0 | 0.00 | 0.00 | 0.00 | 32 | 1043.9 |
| 20260504001022 | 69 | 288 | 4.0 | 6.0 | 0.00 | 0.00 | 0.00 | 32 | 1043.9 |
| 20260504000520 | 69 | 256 | 3.0 | 4.0 | 0.00 | 0.00 | 0.00 | 31 | 1044.0 |
| 20260504000017 | 69 | 259 | 1.0 | 7.0 | 0.00 | 0.00 | 0.00 | 32 | 1043.9 |
| 20260503235515 | 70 | 218 | 3.0 | 6.0 | 0.00 | 0.00 | 0.00 | 30 | 1043.9 |
| 20260503235012 | 70 | 313 | 4.0 | 7.0 | 0.00 | 0.00 | 0.00 | 30 | 1043.8 |
| 20260503234509 | 70 | 345 | 2.0 | 4.0 | 0.00 | 0.00 | 0.00 | 32 | 1043.9 |
| 20260503234008 | 70 | 284 | 5.0 | 8.0 | 0.00 | 0.00 | 0.00 | 31 | 1043.9 |
| 20260503233504 | 71 | 349 | 1.0 | 3.0 | 0.00 | 0.00 | 0.00 | 31 | 1043.8 |
| 20260503233000 | 71 | 253 | 2.0 | 3.0 | 0.00 | 0.00 | 0.00 | 31 | 1043.5 |
| 20260503232457 | 70 | 261 | 3.0 | 4.0 | 0.00 | 0.00 | 0.00 | 32 | 1043.7 |
| 20260503231954 | 70 | 266 | 4.0 | 4.0 | 0.00 | 0.00 | 0.00 | 30 | 1043.8 |
| 20260503231452 | 70 | 254 | 5.0 | 7.0 | 0.00 | 0.00 | 0.00 | 30 | 1043.8 |
| 20260503230948 | 71 | 253 | 5.0 | 7.0 | 0.00 | 0.00 | 0.00 | 31 | 1043.9 |
| 20260503230445 | 71 | 292 | 4.0 | 10.0 | 0.00 | 0.00 | 0.00 | 29 | 1043.8 |
| 20260503225943 | 71 | 271 | 2.0 | 3.0 | 0.00 | 0.00 | 0.00 | 31 | 1043.7 |
| 20260503225439 | 72 | 301 | 4.0 | 6.0 | 0.00 | 0.00 | 0.00 | 29 | 1043.7 |
| 20260503224935 | 72 | 224 | 2.0 | 6.0 | 0.00 | 0.00 | 0.00 | 29 | 1043.6 |
| 20260503224432 | 71 | 313 | 5.0 | 9.0 | 0.00 | 0.00 | 0.00 | 27 | 1043.7 |
| 20260503223930 | 72 | 282 | 7.0 | 10.0 | 0.00 | 0.00 | 0.00 | 27 | 1043.8 |
| 20260503223428 | 72 | 264 | 4.0 | 6.0 | 0.00 | 0.00 | 0.00 | 27 | 1043.5 |
| 20260503222922 | 72 | 270 | 2.0 | 4.0 | 0.00 | 0.00 | 0.00 | 28 | 1043.6 |
| 20260503222422 | 72 | 313 | 3.0 | 7.0 | 0.00 | 0.00 | 0.00 | 27 | 1043.6 |
| 20260503221920 | 72 | 25 | 2.0 | 8.0 | 0.00 | 0.00 | 0.00 | 30 | 1043.6 |
| 20260503221417 | 72 | 324 | 4.0 | 9.0 | 0.00 | 0.00 | 0.00 | 28 | 1043.5 |
| 20260503220914 | 72 | 203 | 2.0 | 6.0 | 0.00 | 0.00 | 0.00 | 29 | 1043.7 |
| 20260503220410 | 72 | 316 | 3.0 | 6.0 | 0.00 | 0.00 | 0.00 | 29 | 1043.7 |
| 20260503215908 | 73 | 274 | 5.0 | 7.0 | 0.00 | 0.00 | 0.00 | 27 | 1043.6 |
| 20260503215404 | 73 | 327 | 4.0 | 9.0 | 0.00 | 0.00 | 0.00 | 30 | 1043.7 |
| 20260503214902 | 72 | 296 | 4.0 | 8.0 | 0.00 | 0.00 | 0.00 | 27 | 1043.6 |
| 20260503214359 | 71 | 290 | 3.0 | 8.0 | 0.00 | 0.00 | 0.00 | 28 | 1043.8 |
| 20260503213856 | 72 | 304 | 4.0 | 7.0 | 0.00 | 0.00 | 0.00 | 27 | 1043.9 |
| 20260503213354 | 72 | 316 | 4.0 | 10.0 | 0.00 | 0.00 | 0.00 | 28 | 1043.9 |
| 20260503212850 | 72 | 335 | 4.0 | 7.0 | 0.00 | 0.00 | 0.00 | 29 | 1043.9 |
| 20260503212349 | 72 | 309 | 4.0 | 7.0 | 0.00 | 0.00 | 0.00 | 28 | 1044.0 |
| 20260503211845 | 72 | 45 | 4.0 | 6.0 | 0.00 | 0.00 | 0.00 | 30 | 1043.9 |
| 20260503211342 | 72 | 287 | 6.0 | 10.0 | 0.00 | 0.00 | 0.00 | 30 | 1044.0 |
| 20260503210837 | 72 | 287 | 3.0 | 10.0 | 0.00 | 0.00 | 0.00 | 29 | 1043.9 |
| 20260503210335 | 73 | 213 | 2.0 | 3.0 | 0.00 | 0.00 | 0.00 | 30 | 1044.0 |
| 20260503205830 | 72 | 123 | 3.0 | 7.0 | 0.00 | 0.00 | 0.00 | 29 | 1043.7 |
| 20260503205327 | 72 | 267 | 5.0 | 9.0 | 0.00 | 0.00 | 0.00 | 28 | 1044.0 |
| 20260503204823 | 72 | 294 | 2.0 | 3.0 | 0.00 | 0.00 | 0.00 | 32 | 1044.0 |
| 20260503204321 | 72 | 206 | 3.0 | 6.0 | 0.00 | 0.00 | 0.00 | 30 | 1044.0 |
| 20260503203818 | 73 | 2 | 6.0 | 8.0 | 0.00 | 0.00 | 0.00 | 32 | 1044.1 |
| 20260503203315 | 72 | 315 | 3.0 | 4.0 | 0.00 | 0.00 | 0.00 | 32 | 1044.0 |
| 20260503202812 | 72 | 297 | 8.0 | 10.0 | 0.00 | 0.00 | 0.00 | 31 | 1043.9 |
| 20260503202310 | 72 | 358 | 2.0 | 7.0 | 0.00 | 0.00 | 0.00 | 32 | 1044.1 |
| 20260503201808 | 72 | 322 | 5.0 | 10.0 | 0.00 | 0.00 | 0.00 | 30 | 1044.3 |
| 20260503201305 | 72 | 269 | 8.0 | 9.0 | 0.00 | 0.00 | 0.00 | 28 | 1044.2 |
| 20260503200802 | 71 | 309 | 3.0 | 11.0 | 0.00 | 0.00 | 0.00 | 34 | 1044.2 |
| 20260503200258 | 71 | 300 | 8.0 | 11.0 | 0.00 | 0.00 | 0.00 | 34 | 1044.2 |
| 20260503195755 | 71 | 281 | 5.0 | 9.0 | 0.00 | 0.00 | 0.00 | 32 | 1044.2 |
| 20260503195252 | 72 | 284 | 5.0 | 10.0 | 0.00 | 0.00 | 0.00 | 31 | 1044.3 |
| 20260503194749 | 72 | 20 | 2.0 | 4.0 | 0.00 | 0.00 | 0.00 | 32 | 1044.3 |
| 20260503194245 | 72 | 27 | 3.0 | 4.0 | 0.00 | 0.00 | 0.00 | 31 | 1044.4 |
| 20260503193741 | 71 | 85 | 1.0 | 4.0 | 0.00 | 0.00 | 0.00 | 30 | 1044.4 |
| 20260503193237 | 72 | 330 | 3.0 | 9.0 | 0.00 | 0.00 | 0.00 | 31 | 1044.5 |
| 20260503192733 | 73 | 32 | 2.0 | 6.0 | 0.00 | 0.00 | 0.00 | 29 | 1044.4 |
| 20260503192228 | 71 | 294 | 1.0 | 3.0 | 0.00 | 0.00 | 0.00 | 32 | 1044.4 |
| 20260503191726 | 72 | 353 | 8.0 | 10.0 | 0.00 | 0.00 | 0.00 | 28 | 1044.5 |
| 20260503191222 | 72 | 324 | 3.0 | 6.0 | 0.00 | 0.00 | 0.00 | 30 | 1044.6 |
| 20260503190720 | 71 | 345 | 3.0 | 6.0 | 0.00 | 0.00 | 0.00 | 30 | 1044.6 |
| 20260503190216 | 71 | 25 | 4.0 | 8.0 | 0.00 | 0.00 | 0.00 | 31 | 1044.6 |
| 20260503185714 | 71 | 195 | 3.0 | 7.0 | 0.00 | 0.00 | 0.00 | 33 | 1044.6 |
| 20260503185209 | 71 | 320 | 4.0 | 8.0 | 0.00 | 0.00 | 0.00 | 33 | 1044.3 |
| 20260503184703 | 71 | 343 | 4.0 | 7.0 | 0.00 | 0.00 | 0.00 | 35 | 1044.4 |
| 20260503184200 | 70 | 18 | 4.0 | 7.0 | 0.00 | 0.00 | 0.00 | 35 | 1044.4 |
| 20260503183656 | 71 | 330 | 2.0 | 8.0 | 0.00 | 0.00 | 0.00 | 34 | 1044.5 |
| 20260503183154 | 71 | 17 | 5.0 | 7.0 | 0.00 | 0.00 | 0.00 | 34 | 1044.5 |
| 20260503182652 | 71 | 278 | 8.0 | 11.0 | 0.00 | 0.00 | 0.00 | 36 | 1044.6 |
| 20260503182150 | 70 | 334 | 6.0 | 9.0 | 0.00 | 0.00 | 0.00 | 34 | 1044.7 |
| 20260503181646 | 70 | 318 | 4.0 | 9.0 | 0.00 | 0.00 | 0.00 | 36 | 1044.5 |
| 20260503181144 | 69 | 304 | 2.0 | 6.0 | 0.00 | 0.00 | 0.00 | 37 | 1044.6 |
| 20260503180640 | 69 | 258 | 4.0 | 6.0 | 0.00 | 0.00 | 0.00 | 39 | 1044.5 |
| 20260503180138 | 70 | 349 | 2.0 | 7.0 | 0.00 | 0.00 | 0.00 | 37 | 1044.8 |
| 20260503175635 | 69 | 189 | 4.0 | 8.0 | 0.00 | 0.00 | 0.00 | 40 | 1044.8 |
| 20260503175132 | 69 | 336 | 5.0 | 11.0 | 0.00 | 0.00 | 0.00 | 37 | 1044.8 |
| 20260503174629 | 69 | 310 | 4.0 | 6.0 | 0.00 | 0.00 | 0.00 | 39 | 1044.8 |
| 20260503174126 | 68 | 347 | 4.0 | 7.0 | 0.00 | 0.00 | 0.00 | 40 | 1044.6 |
| 20260503173621 | 69 | 331 | 5.0 | 7.0 | 0.00 | 0.00 | 0.00 | 41 | 1044.9 |
| 20260503173117 | 68 | 348 | 4.0 | 7.0 | 0.00 | 0.00 | 0.00 | 39 | 1044.7 |
| 20260503172614 | 68 | 307 | 6.0 | 9.0 | 0.00 | 0.00 | 0.00 | 40 | 1044.7 |
| 20260503172112 | 68 | 349 | 3.0 | 7.0 | 0.00 | 0.00 | 0.00 | 40 | 1044.8 |
| 20260503171608 | 68 | 320 | 4.0 | 10.0 | 0.00 | 0.00 | 0.00 | 41 | 1044.8 |
| 20260503171106 | 68 | 266 | 4.0 | 6.0 | 0.00 | 0.00 | 0.00 | 42 | 1044.7 |
| 20260503170603 | 67 | 337 | 4.0 | 10.0 | 0.00 | 0.00 | 0.00 | 42 | 1044.7 |
| 20260503150954 | 62 | 325 | 4.0 | 6.0 | 0.00 | 0.00 | 0.00 | 50 | 1044.6 |
| 20260503150451 | 61 | 355 | 4.0 | 7.0 | 0.00 | 0.00 | 0.00 | 48 | 1044.4 |
| 20260503131343 | 54 | 256 | 5.0 | 8.0 | 0.00 | 0.00 | 0.00 | 53 | 1044.7 |
| 20260503130841 | 54 | 160 | 3.0 | 6.0 | 0.00 | 0.00 | 0.00 | 53 | 1044.9 |
| 20260503130338 | 54 | 234 | 7.0 | 11.0 | 0.00 | 0.00 | 0.00 | 54 | 1044.9 |
| 20260503110732 | 50 | 186 | 3.0 | 6.0 | 0.00 | 0.00 | 0.00 | 56 | 1045.0 |
| 20260503110229 | 50 | 240 | 3.0 | 10.0 | 0.00 | 0.00 | 0.00 | 55 | 1045.0 |
| 20260503100155 | 53 | 162 | 5.0 | 13.0 | 0.00 | 0.00 | 0.00 | 52 | 1045.3 |
| 20260503090114 | 54 | 193 | 5.0 | 8.0 | 0.00 | 0.00 | 0.00 | 54 | 1046.8 |
| 20260503081550 | 54 | 182 | 2.0 | 6.0 | 0.00 | 0.00 | 0.00 | 52 | 1048.0 |
| 20260503081048 | 54 | 211 | 4.0 | 10.0 | 0.00 | 0.00 | 0.00 | 48 | 1048.1 |
| 20260503080544 | 54 | 185 | 4.0 | 8.0 | 0.00 | 0.00 | 0.00 | 50 | 1048.1 |
| 20260503072517 | 55 | 159 | 3.0 | 6.0 | 0.00 | 0.00 | 0.00 | 46 | 1049.3 |
| 20260503072014 | 55 | 238 | 4.0 | 9.0 | 0.00 | 0.00 | 0.00 | 45 | 1049.3 |
| 20260503071511 | 55 | 215 | 4.0 | 7.0 | 0.00 | 0.00 | 0.00 | 45 | 1049.4 |
| 20260503071008 | 56 | 214 | 8.0 | 10.0 | 0.00 | 0.00 | 0.00 | 43 | 1049.2 |
| 20260503070504 | 57 | 206 | 4.0 | 8.0 | 0.00 | 0.00 | 0.00 | 42 | 1048.9 |
| 20260503054923 | 55 | 189 | 3.0 | 8.0 | 0.00 | 0.00 | 0.00 | 44 | 1049.4 |
| 20260503054419 | 55 | 204 | 5.0 | 7.0 | 0.00 | 0.00 | 0.00 | 45 | 1049.4 |
| 20260503053917 | 55 | 228 | 3.0 | 7.0 | 0.00 | 0.00 | 0.00 | 44 | 1049.5 |
| 20260503053414 | 55 | 212 | 2.0 | 4.0 | 0.00 | 0.00 | 0.00 | 45 | 1049.7 |
| 20260503052910 | 54 | 259 | 4.0 | 6.0 | 0.00 | 0.00 | 0.00 | 45 | 1049.5 |
| 20260503052408 | 54 | 216 | 4.0 | 6.0 | 0.00 | 0.00 | 0.00 | 47 | 1049.7 |
| 20260503051904 | 54 | 178 | 2.0 | 3.0 | 0.00 | 0.00 | 0.00 | 46 | 1049.7 |
| 20260503051400 | 54 | 157 | 3.0 | 6.0 | 0.00 | 0.00 | 0.00 | 47 | 1049.5 |
| 20260503050857 | 53 | 281 | 4.0 | 8.0 | 0.00 | 0.00 | 0.00 | 47 | 1049.4 |
| 20260503050353 | 53 | 218 | 4.0 | 6.0 | 0.00 | 0.00 | 0.00 | 47 | 1049.4 |
| 20260503045851 | 53 | 221 | 5.0 | 8.0 | 0.00 | 0.00 | 0.00 | 46 | 1049.6 |
| 20260503045349 | 53 | 198 | 3.0 | 6.0 | 0.00 | 0.00 | 0.00 | 47 | 1049.4 |
| 20260503044845 | 53 | 212 | 6.0 | 7.0 | 0.00 | 0.00 | 0.00 | 46 | 1049.4 |
| 20260503044342 | 53 | 217 | 4.0 | 9.0 | 0.00 | 0.00 | 0.00 | 46 | 1049.5 |
| 20260503043839 | 54 | 203 | 3.0 | 7.0 | 0.00 | 0.00 | 0.00 | 45 | 1049.7 |
| 20260503043336 | 54 | 208 | 2.0 | 6.0 | 0.00 | 0.00 | 0.00 | 45 | 1049.6 |
| 20260503042832 | 54 | 235 | 4.0 | 10.0 | 0.00 | 0.00 | 0.00 | 45 | 1049.7 |
| 20260503042329 | 54 | 233 | 3.0 | 6.0 | 0.00 | 0.00 | 0.00 | 45 | 1049.8 |
| 20260503041825 | 54 | 212 | 2.0 | 7.0 | 0.00 | 0.00 | 0.00 | 45 | 1049.6 |
| 20260503041322 | 54 | 221 | 2.0 | 7.0 | 0.00 | 0.00 | 0.00 | 45 | 1049.7 |
| 20260503040820 | 54 | 210 | 4.0 | 4.0 | 0.00 | 0.00 | 0.00 | 45 | 1049.8 |
| 20260503040317 | 54 | 173 | 2.0 | 4.0 | 0.00 | 0.00 | 0.00 | 44 | 1049.6 |
| 20260503035814 | 54 | 203 | 4.0 | 7.0 | 0.00 | 0.00 | 0.00 | 44 | 1049.6 |
| 20260503035312 | 55 | 206 | 2.0 | 4.0 | 0.00 | 0.00 | 0.00 | 44 | 1049.6 |
| 20260503034809 | 55 | 221 | 2.0 | 4.0 | 0.00 | 0.00 | 0.00 | 44 | 1049.9 |
| 20260503034306 | 55 | 187 | 3.0 | 4.0 | 0.00 | 0.00 | 0.00 | 44 | 1049.9 |
| 20260503033803 | 55 | 218 | 4.0 | 8.0 | 0.00 | 0.00 | 0.00 | 44 | 1050.0 |
| 20260503033300 | 55 | 220 | 2.0 | 4.0 | 0.00 | 0.00 | 0.00 | 44 | 1050.3 |
| 20260503032758 | 55 | 197 | 4.0 | 4.0 | 0.00 | 0.00 | 0.00 | 43 | 1050.1 |
| 20260503032257 | 56 | 176 | 2.0 | 6.0 | 0.00 | 0.00 | 0.00 | 43 | 1050.1 |
| 20260503031753 | 56 | 200 | 2.0 | 6.0 | 0.00 | 0.00 | 0.00 | 43 | 1050.2 |
| 20260503031252 | 56 | 211 | 4.0 | 6.0 | 0.00 | 0.00 | 0.00 | 42 | 1050.3 |
| 20260503030747 | 56 | 184 | 5.0 | 7.0 | 0.00 | 0.00 | 0.00 | 42 | 1050.5 |
| 20260503030244 | 57 | 189 | 3.0 | 7.0 | 0.00 | 0.00 | 0.00 | 42 | 1050.5 |